sat.trackr.live / text

‹ back to catalog

STARLINK-32690

NORAD 62453 · 2024-251X

PAYLOAD ACTIVE UNKNOWN

§ Identity

Operator
Country
US
Launch date
2024-12-29
Launch site
AFWTR
Launch vehicle
Mass (kg)
RCS (m²)

Purposes: comms

External: N2YO · Heavens-Above · Gunter

§ Orbital elements

Epoch: 2026-09-21T20:47:15.619200Z

Period
93.85 min
Inclination
53.1584°
Eccentricity
0.0001351
Mean motion
15.34400605 rev/d
Perigee alt
461.8 km
Apogee alt
463.6 km
Semi-major
6,840.8 km
B*
6.0496e-4
RAAN
141.2618°
Arg perigee
109.9003°
Mean anomaly
250.2146°
Rev number
9,764

§ Raw data

STARLINK-326901 62453U 24251X   26264.86615300  .00020119  00000+0  60496-3 0  99932 62453  53.1584 141.2618 0001351 109.9003 250.2146 15.34400605 97647

JSON: /api/v1/satellites/62453 · /tle

For live sub-satellite position, see the globe view (requires WebGL).

§ Visibility from observer

Set your observer location to see the next 7 days of passes ≥ 10°. The values pass through the URL so the page stays shareable.

No JS? Fill the form by hand. The geolocation button needs JavaScript.